[Date Prev][Date Next][Thread Prev][Thread Next] - [Date Index][Thread Index][Author Index]
2 Line ISS Keps 5-27
- Subject: [sarex] 2 Line ISS Keps 5-27
- From: "Dave Larsen PhD" <doc@xxxxxxxxxxx>
- Date: Thu, 27 May 2004 04:14:22 -0700
ISS
1 25544U 98067A 04148.39583333 .00014017 00000-0 12650-3 0 8667
2 25544 51.6324 71.6967 0006081 157.8812 345.3026 15.68440303315057
----
Via the sarex mailing list at AMSAT.ORG courtesy of AMSAT-NA.
To unsubscribe, send "unsubscribe sarex" to Majordomo@amsat.org
AMSAT Home